TimePST,TemperatureF,Dew PointF,Humidity,Sea Level PressureIn,VisibilityMPH,Wind Direction,Wind SpeedMPH,Gust SpeedMPH,PrecipitationIn,Events,Conditions,WindDirDegrees,DateUTC
12:53 AM,37.0,36.0,96,29.45,7.0,ESE,5.8,-,0.00,,Overcast,120,2012-12-20 08:53:00
1:53 AM,37.0,36.0,96,29.46,6.0,SE,4.6,-,0.00,,Overcast,130,2012-12-20 09:53:00
2:53 AM,37.9,37.0,97,29.47,6.0,SE,4.6,-,0.01,Rain,Light Rain,130,2012-12-20 10:53:00
3:24 AM,37.4,37.4,100,29.48,7.0,Calm,Calm,-,0.00,,Overcast,0,2012-12-20 11:24:00
3:53 AM,37.9,36.0,93,29.48,7.0,SSE,3.5,-,0.00,,Overcast,150,2012-12-20 11:53:00
4:53 AM,37.9,37.0,97,29.49,3.0,SSE,4.6,-,0.02,Rain,Light Rain,160,2012-12-20 12:53:00
5:09 AM,37.4,37.4,100,29.48,2.5,SSE,6.9,-,0.01,Rain,Light Rain,150,2012-12-20 13:09:00
5:19 AM,37.4,37.4,100,29.47,4.0,SE,5.8,-,0.02,Rain,Light Rain,140,2012-12-20 13:19:00
5:31 AM,37.4,37.4,100,29.47,3.0,SE,6.9,-,0.02,Rain,Light Rain,130,2012-12-20 13:31:00
5:42 AM,37.4,37.4,100,29.47,4.0,SSE,3.5,-,0.02,Rain,Light Rain,150,2012-12-20 13:42:00
5:53 AM,37.9,37.0,97,29.48,3.0,SE,4.6,-,0.03,Rain,Light Rain,130,2012-12-20 13:53:00
6:14 AM,39.2,37.4,93,29.47,1.8,SSE,4.6,-,0.01,Rain,Light Rain,160,2012-12-20 14:14:00
6:19 AM,39.2,37.4,93,29.47,2.0,Variable,3.5,-,0.01,Rain,Light Rain,0,2012-12-20 14:19:00
6:31 AM,39.2,37.4,93,29.47,3.0,SSE,4.6,-,0.02,Rain,Light Rain,150,2012-12-20 14:31:00
6:39 AM,39.2,37.4,93,29.47,2.0,Variable,4.6,-,0.02,Rain,Light Rain,0,2012-12-20 14:39:00
6:48 AM,39.2,37.4,93,29.47,3.0,SE,3.5,-,0.03,Rain,Light Rain,140,2012-12-20 14:48:00
6:53 AM,39.0,37.9,96,29.47,4.0,ESE,6.9,-,0.04,Rain,Light Rain,120,2012-12-20 14:53:00
6:59 AM,39.2,37.4,93,29.48,5.0,SSE,4.6,-,0.00,Rain,Light Rain,150,2012-12-20 14:59:00
7:51 AM,39.2,37.4,93,29.48,1.8,SE,8.1,-,0.04,Rain,Rain,140,2012-12-20 15:51:00
7:53 AM,37.9,37.0,97,29.49,1.8,SE,9.2,-,0.05,Rain,Rain,130,2012-12-20 15:53:00
8:04 AM,37.4,37.4,100,29.48,2.5,ESE,8.1,-,0.02,Rain,Light Rain,120,2012-12-20 16:04:00
8:12 AM,37.4,37.4,100,29.49,4.0,ESE,6.9,-,0.03,Rain,Light Rain,120,2012-12-20 16:12:00
8:45 AM,37.4,37.4,100,29.50,2.0,ESE,6.9,-,0.05,Rain,Light Rain,120,2012-12-20 16:45:00
8:53 AM,37.9,37.0,97,29.51,2.0,SE,4.6,-,0.07,Rain,Light Rain,140,2012-12-20 16:53:00
9:16 AM,37.4,37.4,100,29.52,2.0,ESE,5.8,-,0.02,Rain,Light Rain,120,2012-12-20 17:16:00
9:20 AM,37.4,37.4,100,29.52,1.8,Variable,4.6,-,0.02,Rain,Light Rain,0,2012-12-20 17:20:00
9:26 AM,37.4,37.4,100,29.52,2.0,SE,6.9,-,0.03,Rain,Light Rain,140,2012-12-20 17:26:00
9:44 AM,37.4,37.4,100,29.53,3.0,SE,8.1,-,0.03,Rain,Light Rain,130,2012-12-20 17:44:00
9:53 AM,37.0,37.0,100,29.54,3.0,SSE,8.1,-,0.04,Rain,Light Rain,150,2012-12-20 17:53:00
10:14 AM,37.4,35.6,93,29.53,1.8,SE,8.1,-,0.00,Rain,Light Rain,130,2012-12-20 18:14:00
10:24 AM,37.4,35.6,93,29.54,2.0,ESE,6.9,-,0.00,Rain,Light Rain,120,2012-12-20 18:24:00
10:38 AM,37.4,35.6,93,29.54,4.0,SE,5.8,-,0.00,,Overcast,130,2012-12-20 18:38:00
10:53 AM,37.0,36.0,96,29.55,4.0,SE,5.8,-,0.00,Rain,Light Rain,130,2012-12-20 18:53:00
11:53 AM,39.0,37.9,96,29.57,3.0,SE,4.6,-,0.01,,Overcast,130,2012-12-20 19:53:00
12:17 PM,39.2,39.2,100,29.57,6.0,SE,6.9,-,N/A,,Overcast,140,2012-12-20 20:17:00
12:53 PM,39.9,37.9,93,29.59,2.5,SSE,6.9,-,0.00,Rain,Light Rain,150,2012-12-20 20:53:00
1:09 PM,39.2,39.2,100,29.59,5.0,SSE,5.8,-,0.00,,Mostly Cloudy,150,2012-12-20 21:09:00
1:30 PM,41.0,37.4,87,29.60,5.0,Variable,3.5,-,0.00,Rain,Light Rain,0,2012-12-20 21:30:00
1:41 PM,41.0,39.2,93,29.60,2.5,Variable,5.8,-,0.00,Rain,Light Rain,0,2012-12-20 21:41:00
1:53 PM,41.0,39.0,93,29.61,3.0,Variable,4.6,-,0.01,Rain,Light Rain,0,2012-12-20 21:53:00
2:08 PM,41.0,39.2,93,29.61,5.0,SSE,6.9,-,0.00,,Mostly Cloudy,150,2012-12-20 22:08:00
2:47 PM,39.2,39.2,100,29.63,1.8,SSE,3.5,-,0.00,Rain,Light Rain,160,2012-12-20 22:47:00
2:53 PM,39.9,37.9,93,29.64,1.5,South,6.9,-,0.00,Rain,Light Rain,180,2012-12-20 22:53:00
3:01 PM,39.2,37.4,93,29.63,3.0,SSE,6.9,-,0.02,Rain,Light Rain,150,2012-12-20 23:01:00
3:11 PM,39.2,37.4,93,29.65,3.0,SW,6.9,-,0.03,Rain,Light Rain,230,2012-12-20 23:11:00
3:49 PM,39.2,37.4,93,29.65,2.5,SE,3.5,-,0.04,Rain,Light Rain,140,2012-12-20 23:49:00
3:53 PM,39.0,37.9,96,29.66,3.0,SSE,5.8,-,0.04,Rain,Light Rain,150,2012-12-20 23:53:00
4:53 PM,37.9,37.0,97,29.68,6.0,East,3.5,-,0.00,,Overcast,100,2012-12-21 00:53:00
5:53 PM,37.9,36.0,93,29.70,6.0,Calm,Calm,-,0.02,,Overcast,0,2012-12-21 01:53:00
6:53 PM,37.0,36.0,96,29.70,6.0,SE,4.6,-,N/A,,Clear,140,2012-12-21 02:53:00
7:53 PM,37.9,37.0,97,29.72,5.0,Calm,Calm,-,0.00,Rain,Light Rain,0,2012-12-21 03:53:00
8:53 PM,39.0,37.0,93,29.72,6.0,ESE,8.1,-,0.01,,Scattered Clouds,120,2012-12-21 04:53:00
9:53 PM,39.0,36.0,89,29.73,5.0,South,4.6,-,0.00,Rain,Light Rain,170,2012-12-21 05:53:00
10:40 PM,37.4,35.6,93,29.74,2.5,SE,10.4,19.6,0.04,Rain,Light Rain,140,2012-12-21 06:40:00
10:49 PM,37.4,35.6,93,29.74,3.0,SE,9.2,17.3,0.05,Rain,Light Rain,130,2012-12-21 06:49:00
10:53 PM,37.0,36.0,96,29.75,3.0,ESE,6.9,17.3,0.06,Rain,Light Rain,120,2012-12-21 06:53:00
11:19 PM,35.6,35.6,100,29.73,6.0,East,5.8,-,0.00,,Mostly Cloudy,100,2012-12-21 07:19:00
11:53 PM,36.0,35.1,97,29.73,7.0,ENE,4.6,-,0.00,,Overcast,70,2012-12-21 07:53:00